Orbital Elements at Epoch 2459200.5 (2020-Dec-17.0) TDB
Reference: JPL 16 (heliocentric ecliptic J2000)
Element | Value | Uncertainty (1-sigma) | Units |
e | .1487417211011678 | 4.4008e-08 | |
a | 2.585612950946828 | 1.4519e-08 | au |
q | 2.201024430521527 | 1.101e-07 | au |
i | 4.629412240413631 | 4.5926e-06 | deg |
node | 99.20423061692682 | 5.6034e-05 | deg |
peri | 52.77432343460811 | 5.9351e-05 | deg |
M | 195.295216211991 | 2.182e-05 | deg |
tp | 2459895.280164271382 (2022-Nov-11.78016427) | 9.6122e-05 | TDB |
period | 1518.601059333087 4.16 | 1.2791e-05 3.502e-08 | d yr |
n | .2370602850482 | 1.9967e-09 | deg/d |
Q | 2.970201471372128 | 1.6678e-08 | au |
|
| | Orbit Determination Parameters
Additional Information
|